Regional Weather Roundup
Issued by NWS

Home | Current Version | Previous Version | Text Only | Print | Product List | Glossary Off
Versions: 1 2 3 4 5 6 7 8 9 10 11 12 13 14 15 16 17 18 19 20 21 22 23 24 25 26 27 28 29 30 31 32 33 34 35 36 37 38 39 40 41 42 43 44 45 46 47 48 49 50

000
ASUS43 KFSD 170302
RWRSD

WEATHER ROUNDUP FOR SOUTH DAKOTA
NATIONAL WEATHER SERVICE SIOUX FALLS SD
900 PM CST THU NOV 16 2017

NOTE: "FAIR" INDICATES FEW OR NO CLOUDS BELOW 12,000 FEET WITH NO
SIGNIFICANT WEATHER AND/OR OBSTRUCTIONS TO VISIBILITY.


SDZ001>005-009-010-012>017-170400-
NORTHWEST AND NORTH CENTRAL SOUTH DAKOTA

CITY           SKY/WX    TMP DP  RH WIND       PRES   REMARKS
BUFFALO          N/A     39  27  62 NW10      29.49R
FAITH            N/A     44  31  60 VRB3      29.47S
MOBRIDGE       CLOUDY    46  31  55 SE13      29.46F
$$

SDZ012>016-024>037-041>051-057-063-072>074-170400-
SOUTHWEST AND SOUTH CENTRAL SOUTH DAKOTA

CITY           SKY/WX    TMP DP  RH WIND       PRES   REMARKS
RAPID CTY ARPT CLOUDY    65  30  27 SW15      29.51F
PIERRE         CLOUDY    54  33  45 S13       29.49F
CUSTER         CLOUDY    53  24  32 W14G21    29.64S
ELLSWORTH AFB  MOCLDY    63  30  29 SW12      29.51R
PHILIP         CLOUDY    60  31  33 SW14      29.49S
PINE RIDGE     CLOUDY    55  30  38 S15       29.60S
SPEARFISH      FAIR      61  30  31 SW18G25   29.53R
WINNER         FAIR      58  34  40 S30G44    29.54F
$$

SDZ004>011-016>023-039-040-170400-
NORTHEAST SOUTH DAKOTA

CITY           SKY/WX    TMP DP  RH WIND       PRES   REMARKS
ABERDEEN       CLOUDY    41  28  60 S23G31    29.61F
WATERTOWN      CLOUDY    34  26  72 S21G30    29.68F WCI  22
BROOKINGS      PTCLDY    34  26  72 S24G33    29.73F WCI  21
SISSETON         N/A     31  26  82 SE20G30   29.71F WCI  19
$$

SDZ017-020-022-023-036>040-048>070-170400-
SOUTHEAST SOUTH DAKOTA

CITY           SKY/WX    TMP DP  RH WIND       PRES   REMARKS
SIOUX FALLS    CLOUDY    40  28  62 S16G25    29.79F
HURON          CLOUDY    42  29  59 S24G33    29.63S
CHAMBERLAIN    CLOUDY    55  36  47 S17G23    29.58F
MITCHELL       CLOUDY    44  30  57 SE23G31   29.68F
YANKTON        CLOUDY    43  29  57 SE17G23   29.76F
$$

ABBREVIATIONS USED IN REMARKS
   TC - TEMPERATURE IN CELSIUS
  WCI - WIND CHILL INDEX
   HX - HEAT INDEX
  VSB - VISIBILITY





USA.gov is the U.S. government's official web portal to all federal, state and local government web resources and services.